Voltar ao catálogo

STARLINK-37091

AtivoComunicaçõesVLEO
NORAD 68191·PAYLOAD·🇺🇸 United States

Lançado Mar 14, 2026 de Vandenberg Space Force Base

Loading…

Próximas Passagens (próximas 24 horas)

TLE

AtualizadoSource: CelesTrak SupGP

Época: Sep 15, 2026, 03:16 UTC

1 68191C 26050AA  26258.13659722 -.00002035  00000+0 -60122-4 0  2580
2 68191  53.1563 102.8557 0000951  94.4456 265.1393 15.34390626    14

Acompanhe STARLINK-37091 em tempo real com AllMySat

Download on the App Store